| time (UTC) | temp F | wind direction | speed MPH | gust MPH | rain 1hr in | rain 24hr in | rain mn in | humidity % | barometer mb |
| 20260903180531 | 41 | 0.0 | 0.0 | 0.00 | 0.00 | 0.00 | 96 | ||
| 20260903175524 | 40 | 0.0 | 0.0 | 0.00 | 0.00 | 0.00 | 96 | ||
| 20260903174532 | 40 | 0.0 | 0.0 | 0.00 | 0.00 | 0.00 | 96 | ||
| 20260903173544 | 41 | 0.0 | 0.0 | 0.00 | 0.00 | 0.00 | 96 | ||
| 20260903172532 | 41 | 0.0 | 0.0 | 0.00 | 0.00 | 0.00 | 95 | ||
| 20260903171524 | 41 | 0.0 | 0.0 | 0.00 | 0.00 | 0.00 | 95 | ||
| 20260903170532 | 42 | 0.0 | 0.0 | 0.00 | 0.00 | 0.00 | 94 | ||
| 20260903165524 | 41 | 0.0 | 0.0 | 0.00 | 0.00 | 0.00 | 93 | ||
| 20260903164532 | 41 | 0.0 | 0.0 | 0.00 | 0.00 | 0.00 | 91 | ||
| 20260903163524 | 42 | 124 | 0.0 | 2.0 | 0.00 | 0.00 | 0.00 | 90 | |
| 20260903162532 | 43 | 239 | 0.0 | 1.0 | 0.00 | 0.00 | 0.00 | 89 | |
| 20260903161524 | 44 | 84 | 0.0 | 2.0 | 0.00 | 0.00 | 0.00 | 86 | |
| 20260903160531 | 44 | 250 | 0.0 | 2.0 | 0.00 | 0.00 | 0.00 | 87 | |
| 20260903155523 | 44 | 253 | 2.0 | 3.0 | 0.00 | 0.00 | 0.00 | 87 | |
| 20260903154532 | 44 | 269 | 1.0 | 3.0 | 0.00 | 0.00 | 0.00 | 86 | |
| 20260903153524 | 45 | 118 | 0.0 | 2.0 | 0.00 | 0.00 | 0.00 | 84 | |
| 20260903152532 | 45 | 265 | 2.0 | 3.0 | 0.00 | 0.00 | 0.00 | 83 | |
| 20260903151524 | 45 | 272 | 2.0 | 5.0 | 0.00 | 0.00 | 0.00 | 84 | |
| 20260903150552 | 45 | 269 | 1.0 | 2.0 | 0.00 | 0.00 | 0.00 | 84 | |
| 20260903145524 | 45 | 256 | 0.0 | 1.0 | 0.00 | 0.00 | 0.00 | 86 | |
| 20260903144532 | 44 | 249 | 0.0 | 1.0 | 0.00 | 0.00 | 0.00 | 86 | |
| 20260903143524 | 44 | 320 | 1.0 | 3.0 | 0.00 | 0.00 | 0.00 | 86 | |
| 20260903142532 | 44 | 288 | 1.0 | 2.0 | 0.00 | 0.00 | 0.00 | 87 | |
| 20260903141544 | 44 | 244 | 0.0 | 1.0 | 0.00 | 0.00 | 0.00 | 86 | |
| 20260903140532 | 44 | 0.0 | 0.0 | 0.00 | 0.00 | 0.00 | 84 | ||
| 20260903135524 | 45 | 205 | 0.0 | 1.0 | 0.00 | 0.00 | 0.00 | 82 | |
| 20260903134532 | 46 | 256 | 2.0 | 5.0 | 0.00 | 0.00 | 0.00 | 80 | |
| 20260903133525 | 46 | 265 | 3.0 | 6.0 | 0.00 | 0.00 | 0.00 | 80 | |
| 20260903132532 | 46 | 259 | 3.0 | 7.0 | 0.00 | 0.00 | 0.00 | 82 | |
| 20260903131524 | 45 | 241 | 1.0 | 3.0 | 0.00 | 0.00 | 0.00 | 83 | |
| 20260903130532 | 46 | 200 | 0.0 | 1.0 | 0.00 | 0.00 | 0.00 | 81 | |
| 20260903125525 | 46 | 258 | 2.0 | 5.0 | 0.00 | 0.00 | 0.00 | 81 | |
| 20260903124532 | 46 | 269 | 3.0 | 6.0 | 0.00 | 0.00 | 0.00 | 84 | |
| 20260903123524 | 44 | 262 | 2.0 | 5.0 | 0.00 | 0.00 | 0.00 | 89 | |
| 20260903122532 | 44 | 0.0 | 0.0 | 0.00 | 0.00 | 0.00 | 88 | ||
| 20260903121524 | 45 | 0.0 | 0.0 | 0.00 | 0.00 | 0.00 | 86 | ||
| 20260903120532 | 45 | 138 | 0.0 | 1.0 | 0.00 | 0.00 | 0.00 | 85 | |
| 20260903115524 | 45 | 266 | 1.0 | 3.0 | 0.00 | 0.00 | 0.00 | 85 | |
| 20260903114532 | 45 | 177 | 0.0 | 1.0 | 0.00 | 0.00 | 0.00 | 85 | |
| 20260903113524 | 46 | 203 | 0.0 | 1.0 | 0.00 | 0.00 | 0.00 | 83 | |
| 20260903112532 | 46 | 260 | 2.0 | 6.0 | 0.00 | 0.00 | 0.00 | 82 | |
| 20260903111524 | 46 | 262 | 2.0 | 5.0 | 0.00 | 0.00 | 0.00 | 82 | |
| 20260903110532 | 47 | 259 | 2.0 | 3.0 | 0.00 | 0.00 | 0.00 | 79 | |
| 20260903105604 | 48 | 268 | 2.0 | 6.0 | 0.00 | 0.00 | 0.00 | 78 | |
| 20260903104532 | 48 | 268 | 3.0 | 6.0 | 0.00 | 0.00 | 0.00 | 78 | |
| 20260903103524 | 48 | 270 | 3.0 | 8.0 | 0.00 | 0.00 | 0.00 | 78 | |
| 20260903102531 | 48 | 264 | 2.0 | 7.0 | 0.00 | 0.00 | 0.00 | 78 | |
| 20260903101524 | 48 | 272 | 2.0 | 5.0 | 0.00 | 0.00 | 0.00 | 78 | |
| 20260903100552 | 48 | 266 | 2.0 | 5.0 | 0.00 | 0.00 | 0.00 | 78 | |
| 20260903095524 | 48 | 251 | 1.0 | 3.0 | 0.00 | 0.00 | 0.00 | 78 | |
| 20260903094533 | 49 | 270 | 3.0 | 8.0 | 0.00 | 0.00 | 0.00 | 77 | |
| 20260903093545 | 48 | 286 | 5.0 | 10.0 | 0.00 | 0.00 | 0.00 | 77 | |
| 20260903092532 | 49 | 269 | 5.0 | 9.0 | 0.00 | 0.00 | 0.00 | 77 | |
| 20260903091524 | 49 | 275 | 4.0 | 9.0 | 0.00 | 0.00 | 0.00 | 77 | |
| 20260903090532 | 49 | 286 | 4.0 | 9.0 | 0.00 | 0.00 | 0.00 | 77 | |
| 20260903085523 | 49 | 275 | 4.0 | 8.0 | 0.00 | 0.00 | 0.00 | 77 | |
| 20260903084532 | 49 | 272 | 2.0 | 6.0 | 0.00 | 0.00 | 0.00 | 76 | |
| 20260903083524 | 49 | 269 | 4.0 | 7.0 | 0.00 | 0.00 | 0.00 | 75 | |
| 20260903082532 | 49 | 285 | 4.0 | 8.0 | 0.00 | 0.00 | 0.00 | 76 | |
| 20260903081544 | 49 | 269 | 1.0 | 5.0 | 0.00 | 0.00 | 0.00 | 75 | |
| 20260903080532 | 50 | 285 | 3.0 | 7.0 | 0.00 | 0.00 | 0.00 | 74 | |
| 20260903075544 | 50 | 274 | 3.0 | 7.0 | 0.00 | 0.00 | 0.00 | 73 | |
| 20260903073525 | 51 | 253 | 3.0 | 10.0 | 0.00 | 0.00 | 0.00 | 70 | |
| 20260903072531 | 52 | 271 | 4.0 | 9.0 | 0.00 | 0.00 | 0.00 | 69 | |
| 20260903071524 | 53 | 264 | 6.0 | 14.0 | 0.00 | 0.00 | 0.00 | 67 | |
| 20260903070532 | 54 | 266 | 8.0 | 17.0 | 0.00 | 0.00 | 0.00 | 65 | |
| 20260903065524 | 54 | 269 | 7.0 | 15.0 | 0.00 | 0.00 | 0.00 | 65 | |
| 20260903064533 | 55 | 266 | 9.0 | 18.0 | 0.00 | 0.00 | 0.00 | 63 | |
| 20260903063544 | 55 | 274 | 9.0 | 21.0 | 0.00 | 0.00 | 0.00 | 64 | |
| 20260903062532 | 55 | 277 | 11.0 | 21.0 | 0.00 | 0.00 | 0.00 | 63 | |
| 20260903061524 | 56 | 279 | 9.0 | 21.0 | 0.00 | 0.00 | 0.00 | 61 | |
| 20260903060532 | 56 | 279 | 8.0 | 18.0 | 0.00 | 0.00 | 0.00 | 61 | |
| 20260903055524 | 57 | 289 | 7.0 | 14.0 | 0.00 | 0.00 | 0.00 | 60 | |
| 20260903054532 | 57 | 288 | 6.0 | 19.0 | 0.00 | 0.00 | 0.00 | 59 | |
| 20260903053526 | 57 | 282 | 7.0 | 14.0 | 0.00 | 0.00 | 0.00 | 59 | |
| 20260903052532 | 57 | 271 | 4.0 | 15.0 | 0.00 | 0.00 | 0.00 | 58 | |
| 20260903051524 | 57 | 253 | 7.0 | 17.0 | 0.00 | 0.00 | 0.00 | 59 | |
| 20260903050532 | 58 | 278 | 11.0 | 19.0 | 0.00 | 0.00 | 0.00 | 58 | |
| 20260903045524 | 58 | 280 | 13.0 | 29.0 | 0.00 | 0.00 | 0.00 | 57 | |
| 20260903044552 | 59 | 270 | 11.0 | 21.0 | 0.00 | 0.00 | 0.00 | 56 | |
| 20260903043524 | 59 | 268 | 12.0 | 24.0 | 0.00 | 0.00 | 0.00 | 55 | |
| 20260903042532 | 58 | 273 | 12.0 | 21.0 | 0.00 | 0.00 | 0.00 | 56 | |
| 20260903041524 | 59 | 286 | 9.0 | 18.0 | 0.00 | 0.00 | 0.00 | 57 | |
| 20260903040532 | 59 | 288 | 9.0 | 17.0 | 0.00 | 0.00 | 0.00 | 56 | |
| 20260903035524 | 59 | 285 | 9.0 | 19.0 | 0.00 | 0.00 | 0.00 | 55 | |
| 20260903034532 | 59 | 285 | 8.0 | 19.0 | 0.00 | 0.00 | 0.00 | 57 | |
| 20260903033524 | 59 | 286 | 9.0 | 22.0 | 0.00 | 0.00 | 0.00 | 57 | |
| 20260903032532 | 59 | 280 | 7.0 | 11.0 | 0.00 | 0.00 | 0.00 | 57 | |
| 20260903031524 | 59 | 269 | 10.0 | 17.0 | 0.00 | 0.00 | 0.00 | 55 | |
| 20260903030532 | 59 | 275 | 10.0 | 19.0 | 0.00 | 0.00 | 0.00 | 55 | |
| 20260903025526 | 59 | 280 | 9.0 | 21.0 | 0.00 | 0.00 | 0.00 | 57 | |
| 20260903024534 | 59 | 291 | 9.0 | 18.0 | 0.00 | 0.00 | 0.00 | 56 | |
| 20260903023524 | 60 | 285 | 9.0 | 16.0 | 0.00 | 0.00 | 0.00 | 53 | |
| 20260903022532 | 60 | 274 | 8.0 | 17.0 | 0.00 | 0.00 | 0.00 | 55 | |
| 20260903021524 | 60 | 282 | 8.0 | 17.0 | 0.00 | 0.00 | 0.00 | 53 | |
| 20260903020532 | 60 | 271 | 8.0 | 15.0 | 0.00 | 0.00 | 0.00 | 52 | |
| 20260903015540 | 60 | 274 | 9.0 | 19.0 | 0.00 | 0.00 | 0.00 | 49 | |
| 20260903014548 | 60 | 274 | 10.0 | 18.0 | 0.00 | 0.00 | 0.00 | 49 | |
| 20260903013524 | 60 | 276 | 8.0 | 16.0 | 0.00 | 0.00 | 0.00 | 49 | |
| 20260903012532 | 60 | 279 | 8.0 | 14.0 | 0.00 | 0.00 | 0.00 | 51 | |
| 20260903011526 | 59 | 273 | 8.0 | 16.0 | 0.00 | 0.00 | 0.00 | 50 | |
| 20260903010532 | 59 | 279 | 10.0 | 18.0 | 0.00 | 0.00 | 0.00 | 50 | |
| 20260903005524 | 59 | 264 | 11.0 | 24.0 | 0.00 | 0.00 | 0.00 | 52 | |
| 20260903004532 | 59 | 267 | 9.0 | 19.0 | 0.00 | 0.00 | 0.00 | 55 | |
| 20260903003525 | 58 | 265 | 11.0 | 19.0 | 0.00 | 0.00 | 0.00 | 56 | |
| 20260903002532 | 58 | 268 | 11.0 | 19.0 | 0.00 | 0.00 | 0.00 | 59 | |
| 20260903001524 | 58 | 266 | 12.0 | 22.0 | 0.00 | 0.00 | 0.00 | 61 | |
| 20260903000532 | 58 | 264 | 10.0 | 19.0 | 0.00 | 0.00 | 0.00 | 62 | |
| 20260902235526 | 58 | 266 | 8.0 | 16.0 | 0.00 | 0.00 | 0.00 | 64 | |
| 20260902234553 | 59 | 260 | 9.0 | 19.0 | 0.00 | 0.00 | 0.00 | 66 | |
| 20260902233524 | 58 | 250 | 8.0 | 16.0 | 0.00 | 0.00 | 0.00 | 65 | |
| 20260902232532 | 58 | 267 | 10.0 | 18.0 | 0.00 | 0.00 | 0.00 | 66 | |
| 20260902231525 | 58 | 267 | 10.0 | 19.0 | 0.00 | 0.00 | 0.00 | 69 | |
| 20260902230533 | 57 | 276 | 8.0 | 17.0 | 0.00 | 0.00 | 0.00 | 73 | |
| 20260902225525 | 56 | 272 | 9.0 | 17.0 | 0.00 | 0.00 | 0.00 | 77 | |
| 20260902224533 | 56 | 271 | 7.0 | 14.0 | 0.00 | 0.00 | 0.00 | 80 | |
| 20260902223525 | 56 | 266 | 5.0 | 10.0 | 0.00 | 0.00 | 0.00 | 85 | |
| 20260902222532 | 55 | 279 | 8.0 | 18.0 | 0.00 | 0.00 | 0.00 | 87 | |
| 20260902221524 | 55 | 271 | 5.0 | 13.0 | 0.00 | 0.00 | 0.00 | 90 | |
| 20260902220533 | 54 | 277 | 7.0 | 14.0 | 0.00 | 0.00 | 0.00 | 91 | |
| 20260902215524 | 54 | 267 | 5.0 | 14.0 | 0.00 | 0.00 | 0.00 | 95 | |
| 20260902214532 | 53 | 280 | 4.0 | 9.0 | 0.00 | 0.00 | 0.00 | 97 | |
| 20260902213524 | 52 | 277 | 3.0 | 8.0 | 0.00 | 0.00 | 0.00 | 98 | |
| 20260902212533 | 52 | 286 | 5.0 | 10.0 | 0.00 | 0.00 | 0.00 | 98 | |
| 20260902211545 | 52 | 276 | 4.0 | 8.0 | 0.00 | 0.00 | 0.00 | 98 | |
| 20260902210532 | 52 | 273 | 5.0 | 10.0 | 0.00 | 0.00 | 0.00 | 98 | |
| 20260902205544 | 52 | 275 | 4.0 | 8.0 | 0.00 | 0.00 | 0.00 | 98 | |
| 20260902204532 | 52 | 265 | 5.0 | 9.0 | 0.00 | 0.00 | 0.00 | 98 | |
| 20260902203524 | 52 | 263 | 4.0 | 8.0 | 0.00 | 0.00 | 0.00 | 98 | |
| 20260902202533 | 52 | 267 | 5.0 | 10.0 | 0.00 | 0.00 | 0.00 | 98 | |
| 20260902201525 | 52 | 274 | 5.0 | 10.0 | 0.00 | 0.00 | 0.00 | 98 | |
| 20260902200553 | 51 | 269 | 5.0 | 11.0 | 0.00 | 0.00 | 0.00 | 98 | |
| 20260902195525 | 52 | 273 | 5.0 | 10.0 | 0.00 | 0.00 | 0.00 | 98 | |
| 20260902194533 | 52 | 284 | 4.0 | 10.0 | 0.00 | 0.00 | 0.00 | 98 | |
| 20260902193525 | 52 | 270 | 4.0 | 10.0 | 0.00 | 0.00 | 0.00 | 98 | |
| 20260902192532 | 52 | 290 | 6.0 | 13.0 | 0.00 | 0.00 | 0.00 | 98 | |
| 20260902191525 | 52 | 280 | 5.0 | 9.0 | 0.00 | 0.00 | 0.00 | 98 | |
| 20260902190533 | 52 | 282 | 5.0 | 10.0 | 0.00 | 0.00 | 0.00 | 98 | |
| 20260902185524 | 52 | 282 | 4.0 | 10.0 | 0.00 | 0.00 | 0.00 | 98 | |
| 20260902184534 | 52 | 276 | 4.0 | 8.0 | 0.00 | 0.00 | 0.00 | 98 | |
| 20260902183525 | 52 | 267 | 4.0 | 7.0 | 0.00 | 0.00 | 0.00 | 98 | |
| 20260902182532 | 52 | 268 | 4.0 | 9.0 | 0.00 | 0.00 | 0.00 | 98 | |
| 20260902181525 | 52 | 293 | 4.0 | 9.0 | 0.00 | 0.00 | 0.00 | 98 |